Terminal Aerodrome Forecast
Issued by NWS Jackson, MS

Current Version | Previous Version | Text Only | Print | Product List | Glossary On
Versions: 1 2 3 4 5 6 7 8 9 10 11 12 13 14 15 16 17 18 19 20 21 22 23 24 25
000
FTUS44 KJAN 250900 AAB
TAFMEI
TAF AMD
KMEI 250942Z 2510/2606 00000KT P6SM SCT200
     FM251430 30006KT P6SM SCT040
     FM260000 30003KT P6SM SKC=

USA.gov is the U.S. government's official web portal to all federal, state and local government web resources and services.